TimeEDT,TemperatureF,Dew PointF,Humidity,Sea Level PressureIn,VisibilityMPH,Wind Direction,Wind SpeedMPH,Gust SpeedMPH,PrecipitationIn,Events,Conditions,WindDirDegrees,DateUTC
12:51 AM,68.0,48.9,50,29.95,10.0,NE,6.9,-,N/A,,Clear,50,2012-06-01 04:51:00
1:51 AM,64.9,48.0,54,29.97,10.0,NE,5.8,-,N/A,,Clear,40,2012-06-01 05:51:00
2:51 AM,64.9,46.9,52,29.97,10.0,Variable,5.8,-,N/A,,Clear,0,2012-06-01 06:51:00
3:51 AM,64.0,46.0,52,29.98,10.0,NNE,8.1,-,N/A,,Clear,30,2012-06-01 07:51:00
4:51 AM,62.1,46.9,58,29.98,10.0,Variable,3.5,-,N/A,,Clear,0,2012-06-01 08:51:00
5:51 AM,62.1,48.0,60,29.99,10.0,Variable,6.9,-,N/A,,Clear,0,2012-06-01 09:51:00
6:51 AM,62.1,48.9,62,29.99,10.0,ENE,8.1,-,N/A,,Clear,60,2012-06-01 10:51:00
7:51 AM,64.0,51.1,63,30.00,10.0,ENE,10.4,-,N/A,,Clear,70,2012-06-01 11:51:00
8:51 AM,64.9,53.1,65,30.01,10.0,ENE,10.4,-,N/A,,Clear,60,2012-06-01 12:51:00
9:51 AM,66.9,53.1,61,30.00,10.0,ENE,8.1,-,N/A,,Clear,60,2012-06-01 13:51:00
10:51 AM,68.0,55.0,63,30.01,10.0,ENE,9.2,-,N/A,,Clear,60,2012-06-01 14:51:00
11:51 AM,72.0,57.0,59,30.00,10.0,ENE,8.1,-,N/A,,Clear,60,2012-06-01 15:51:00
12:51 PM,73.0,57.9,59,29.99,10.0,East,8.1,-,N/A,,Partly Cloudy,90,2012-06-01 16:51:00
1:51 PM,69.1,57.0,65,29.98,10.0,North,-9999.0,-,N/A,,Partly Cloudy,0,2012-06-01 17:51:00
2:51 PM,66.9,57.0,70,29.96,10.0,Variable,5.8,20.7,N/A,,Overcast,0,2012-06-01 18:51:00
3:51 PM,68.0,55.9,65,29.94,10.0,Variable,6.9,-,N/A,,Clear,0,2012-06-01 19:51:00
4:51 PM,66.0,55.9,70,29.93,10.0,SE,10.4,17.3,N/A,,Scattered Clouds,130,2012-06-01 20:51:00
5:51 PM,66.0,55.9,70,29.91,10.0,ESE,8.1,18.4,N/A,,Clear,110,2012-06-01 21:51:00
6:51 PM,64.9,55.9,73,29.91,10.0,Variable,4.6,-,N/A,,Mostly Cloudy,0,2012-06-01 22:51:00
7:51 PM,63.0,55.9,78,29.90,10.0,East,11.5,20.7,N/A,,Overcast,100,2012-06-01 23:51:00
7:59 PM,63.0,55.9,78,29.93,10.0,ESE,8.1,20.7,N/A,,Overcast,110,2012-06-01 23:59:00
8:51 PM,63.0,57.0,81,29.90,10.0,East,12.7,23.0,N/A,,Overcast,90,2012-06-02 00:51:00
9:37 PM,63.0,57.0,81,29.91,10.0,ESE,9.2,24.2,N/A,,Overcast,120,2012-06-02 01:37:00
9:51 PM,63.0,57.9,84,29.88,10.0,ESE,8.1,-,N/A,,Overcast,120,2012-06-02 01:51:00
10:51 PM,63.0,60.1,90,29.83,10.0,ESE,9.2,17.3,0.00,,Overcast,110,2012-06-02 02:51:00
11:51 PM,64.9,61.0,87,29.79,10.0,East,10.4,21.9,N/A,,Overcast,100,2012-06-02 03:51:00